Location: Vinland
(47.7731°N, 122.6974°W)
Time: 23:13:43
(UTC+00:00)

S-56A Canister/Altair - Pass Details

Date: 03 April 2023
Orbit: 639 x 2492 km, 38.9° (Epoch: 02 June)

Event Time Altitude Azimuth Distance (km) Brightness Sun altitude
Rises 07:40:56 0° 278° (W) 5,710 12.2 -36.5°
Reaches altitude 10° 07:46:01 10° 263° (W) 4,925 11.6 -36.6°
Enters shadow 07:52:11 18° 238° (WSW) 4,411 11.1 -36.7°
